Regional Weather Roundup
Issued by NWS

Home | Current Version | Previous Version | Text Only | Print | Product List | Glossary On
Versions: 1 2 3 4 5 6 7 8 9 10 11 12 13 14 15 16 17 18 19 20 21 22 23 24 25 26 27 28 29 30 31 32 33 34 35 36 37 38 39 40 41 42 43 44 45 46 47 48 49 50
000
ASUS45 KABQ 210210
RWRNM
NEW MEXICO REGIONAL WEATHER ROUNDUP
NATIONAL WEATHER SERVICE ALBUQUERQUE NM
700 PM MST MON NOV 20 2017

NOTE: "FAIR" MEANS FEW OR NO CLOUDS BELOW 12,000 FEET AGL WITH NO
       SIGNIFICANT WEATHER OR OBSTRUCTIONS TO VISION.

      THIS PRODUCT IS RELEASED AS TWO VERSIONS.  ONE VERSION NEAR
      THE TOP OF THE HOUR CONTAINING PRELIMINARY DATA FROM ALBUQUERQUE
      AND OTHER STATIONS.  A FINAL VERSION WITH ADDITIONAL DATA IS
      ISSUED ABOUT 10 MINUTES AFTER THE HOUR.

NMZ501-503-504-510>518-210300-
NORTHWEST PLATEAU/NORTHCENTRAL MOUNTAINS

CITY           SKY/WX    TMP DP  RH WIND       PRES   REMARKS
FARMINGTON     FAIR      39  11  31 W8        30.14R WCI  33
LOS ALAMOS     FAIR      48  -4  11 N3        30.13R
SANTA FE       FAIR      38   6  26 N8        30.09R WCI  32
TAOS           FAIR      40  -6  14 VRB3      30.14
ANGEL FIRE     FAIR      40  -6  14 W20       30.14R WCI  30

$$
NMZ402-403-502-505>509-210300-
WESTCENTRAL MOUNTAINS/SOUTHWEST MOUNTAINS

CITY           SKY/WX    TMP DP  RH WIND       PRES   REMARKS
GALLUP         FAIR      36   5  27 CALM      30.19R
GRANTS         FAIR      45   1  16 N6        30.16R
SILVER CITY    FAIR      48  15  26 NW9       30.12R

$$
NMZ407-409-411-412-210300-
SOUTHERN DESERTS

CITY           SKY/WX    TMP DP  RH WIND       PRES   REMARKS
DEMING         FAIR      58  18  21 W6        30.06R
LAS CRUCES     FAIR      54  20  26 S5        30.07R
HOLLOMAN AFB   FAIR      48  13  24 E9        30.06R
ALAMOGORDO     FAIR      50  10  20 E9        30.05R
T OR C         FAIR      55  14  19 N3        30.06R

$$
NMZ519>523-210300-
CENTRAL VALLEYS/CENTRAL HIGHLANDS

CITY           SKY/WX    TMP DP  RH WIND       PRES   REMARKS
ALBUQUERQUE    MOCLDY    50   2  14 CALM      30.09R
DOUBLE EAGLE   CLEAR     39   3  22 W6        30.12R WCI  35
MORIARTY ARPT  FAIR      54  -7   8 W13G18    30.07S
CLINES CORNERS FAIR      47  -8  10 W25       30.06R
BELEN          FAIR      41   9  26 W7        30.09R
SOCORRO        FAIR      46   6  20 N5        30.08R

$$
NMZ524>526-539-540-210300-
SOUTHCENTRAL MOUNTAINS

CITY           SKY/WX    TMP DP  RH WIND       PRES   REMARKS
RUIDOSO        FAIR      50  -8   9 NW14      30.09S

$$
NMZ527>531-210300-
NORTHEAST HIGHLANDS/NORTHEAST PLAINS

CITY           SKY/WX    TMP DP  RH WIND       PRES   REMARKS
LAS VEGAS      FAIR      44  -3  14 E12       29.99R
RATON          FAIR      41  11  29 N7        29.94R
CLAYTON        FAIR      48   8  19 W8        29.85R

$$
NMZ532>537-210300-
EASTCENTRAL PLAINS

CITY           SKY/WX    TMP DP  RH WIND       PRES   REMARKS
SANTA ROSA     FAIR      58   3  11 W24G31    29.89S
TUCUMCARI      FAIR      58   3  11 W13       29.82R
CANNON AFB     FAIR      58  -6   7 W13       29.88R
CLOVIS AIRPORT FAIR      51   6  16 W7        29.87S

$$
NMZ028-029-538-210300-
SOUTHEAST PLAINS

CITY           SKY/WX    TMP DP  RH WIND       PRES   REMARKS
ROSWELL        FAIR      53  21  28 SW5       29.91S
ARTESIA        FAIR      55  16  21 W13       29.93R
CARLSBAD       FAIR      60  17  18 CALM      29.91F
HOBBS          FAIR      50  23  34 W12       29.91F


$$




USA.gov is the U.S. government's official web portal to all federal, state and local government web resources and services.